Regional Weather Roundup
Issued by NWS

Home | Current Version | Previous Version | Text Only | Print | Product List | Glossary On
Versions: 1 2 3 4 5 6 7 8 9 10 11 12 13 14 15 16 17 18 19 20 21 22 23 24 25 26 27 28 29 30 31 32 33 34 35 36 37 38 39 40 41 42 43 44 45 46 47 48 49 50
000
ASUS43 KDTX 262210
RWRMI
MICHIGAN HOURLY REGIONAL WEATHER ROUNDUP
NATIONAL WEATHER SERVICE DETROIT/PONTIAC MI
600 PM EDT MON JUN 26 2017

NOTE: "FAIR" INDICATES FEW OR NO CLOUDS BELOW 12,000 FEET WITH NO
SIGNIFICANT WEATHER AND/OR OBSTRUCTION TO VISIBILITY.

MIZ047>049-052>055-059>063-066>070-074>076-081>083-262300-
SOUTHEAST LOWER MICHIGAN

CITY           SKY/WX    TMP DP  RH WIND       PRES   REMARKS
ADRIAN         PTSUNNY   69  44  40 NW10G23   29.99F
ALMA           MOSUNNY   65  42  41 W16G23    29.97S
ANN ARBOR      MOSUNNY   67  46  47 W12       29.98S
BAD AXE        CLOUDY    63  46  54 W12G21    29.93S
CARO           PTSUNNY   66  47  49 W14       29.94S
DETROIT CITY   MOSUNNY   69  40  34 W18G24    29.96S
DETROIT        PTSUNNY   70  41  34 W12       29.98F
FLINT          SUNNY     68  42  38 W16       29.96S
GROSSE ILE     CLOUDY    70  43  37 W14       29.97F
HILLSDALE      PTSUNNY   68  39  34 W15G23    29.99F
HOWELL         PTSUNNY   67  35  31 W15G23    29.98S

CITY           SKY/WX    TMP DP  RH WIND       PRES   REMARKS
JACKSON        PTSUNNY   66  42  41 NW14G20   29.99F
LAMBERTVILLE   MOSUNNY   71  43  37 W8        29.98F
LANSING        MOSUNNY   69  40  34 W18G26    29.98F
LAPEER         FAIR      69  40  34 W13G22    29.95F
MASON          MOSUNNY   68  44  42 W14G22    29.98F
MONROE         MOSUNNY   68  43  40 NW14G20   29.97F
MT. CLEMENS    PTSUNNY   70  41  34 W17G23    29.93F
PONTIAC        MOSUNNY   66  39  37 W18G25    29.95F
PORT HOPE        N/A     65  48  54 W8        29.90F
PORT HURON     PTSUNNY   66  39  37 W7        29.94F
TRI CITIES     MOSUNNY   65  48  54 W16       29.95F
MIDLAND        PTSUNNY   67  41  38 W10G20    29.94F
TROY           MOSUNNY   69  36  29 W10G20    29.98F
SAGINAW HB     SUNNY     64  41  42 W16G24    29.95R
$$
MIZ043>046-050>051-056>058-064>065-071>073-077>080-262300-
SOUTHWEST LOWER MICHIGAN

CITY           SKY/WX    TMP DP  RH WIND       PRES   REMARKS
BATTLE CREEK   MOSUNNY   68  44  42 W15G25    30.00F
BENTON HARBOR  SUNNY     67  47  48 NW10G18   30.02F
BIG RAPIDS     CLOUDY    59  43  54 W14G21    29.97F
COLDWATER      MOSUNNY   69  40  34 W14G24    30.00F
FREMONT        PTSUNNY   59  43  55 W12G20    30.00F
HOLLAND        LGT RAIN  58  49  72 W10       30.04R
GRAND RAPIDS   PTSUNNY   60  45  57 NW22G32   30.01R
IONIA          PTSUNNY   64  41  42 W14G21    29.98F
KALAMAZOO      MOSUNNY   69  40  34 NW18G25   30.01F
LUDINGTON      CLOUDY    57  48  72 NW8       30.00F
MARSHALL       MOSUNNY   66  44  43 W8        29.99S
MOUNT PLEASANT SUNNY     64  44  49 W10G18    29.96S
MUSKEGON       PTSUNNY   61  47  59 W13G20    30.01F
SOUTH HAVEN    PTSUNNY   62  51  66 NW13G23   30.03S
$$
MIZ016>042-262300-
NORTHERN LOWER MICHIGAN

CITY           SKY/WX    TMP DP  RH WIND       PRES   REMARKS
ALPENA         LGT RAIN  60  54  80 NW9       29.92R
BEAVER ISLAND  DRIZZLE   56  53  91 N6        29.96S
BELLAIRE       CLOUDY    56  52  85 SW7       29.96S
CADILLAC       CLOUDY    58  45  62 W15       29.96F
CHARLEVOIX     RAIN      55  55 100 NW9       29.98S
FRANKFORT      LGT RAIN  56  49  79 W8        29.99S
GAYLORD        CLOUDY    56  48  74 SW14      29.94F
GRAYLING       CLOUDY    55  48  76 W6        29.96S
HARBOR SPRINGS RAIN      53  53  99 N7        29.94S
HOUGHTON LAKE  CLOUDY    59  44  57 W15       29.96F
MANISTEE       PTSUNNY   59  47  64 W12       29.99F
OSCODA         MOSUNNY   69  41  35 W15G28    29.90S
PELLSTON       LGT RAIN  55  51  86 NW6       29.94S
ROGERS CITY    CLOUDY    56  53  88 NW8       29.93S
TRAVERSE CITY  CLOUDY    58  50  75 SW10      29.95F
$$
MIZ007>008-015-262300-
EASTERN UPPER MICHIGAN

CITY           SKY/WX    TMP DP  RH WIND       PRES   REMARKS
KINROSS        LGT RAIN  54  52  94 NW8       29.93S
MACKINAC ISLAN LGT RAIN  54  54 100 N6        29.94R
NEWBERRY       CLOUDY    51  51  97 NW3       29.96R
S. S. MARIE    LGT RAIN  57  53  86 NW7       29.92S
MUNISING         N/A     55  48  77 N7        29.99F
$$
MIZ004>006-011>014-085-262300-
CENTRAL UPPER MICHIGAN

CITY           SKY/WX    TMP DP  RH WIND       PRES   REMARKS
MANISTIQUE     CLOUDY    56  47  69 N10       29.97S
ESCANABA       CLOUDY    63  49  60 N8        29.98F
MENOMINEE      PTSUNNY   58  52  80 NW5       30.02R
SAWYER-GWINN   SUNNY     61  43  51 N14G22    30.00F
$$
MIZ001>003-009>011-084-262300-
WESTERN UPPER MICHIGAN

CITY           SKY/WX    TMP DP  RH WIND       PRES   REMARKS
IRON MOUNTAIN  PTSUNNY   61  50  67 NW6       30.01F
HOUGHTON       SUNNY     62  43  49 W18       30.01S
COPPER HARBOR    N/A     60  50  69 N15G26    29.99S
IRONWOOD       SUNNY     64  46  52 NW12      30.05F
$$

ABBREVIATIONS USED IN REMARKS
   TC - TEMPERATURE IN CELSIUS
  WCI - WIND CHILL INDEX
   HX - HEAT INDEX
  VSB - VISIBILITY





USA.gov is the U.S. government's official web portal to all federal, state and local government web resources and services.